Regional Weather Roundup
Issued by NWS

Home | Current Version | Previous Version | Text Only | Print | Product List | Glossary Off
Versions: 1 2 3 4 5 6 7 8 9 10 11 12 13 14 15 16 17 18 19 20 21 22 23 24 25 26 27 28 29 30 31 32 33 34 35 36 37 38 39 40 41 42 43 44 45 46 47 48 49 50

000
ASUS43 KDTX 171101
RWRMI
MICHIGAN HOURLY REGIONAL WEATHER ROUNDUP
NATIONAL WEATHER SERVICE DETROIT/PONTIAC MI
700 AM EDT TUE OCT 17 2017

NOTE: "FAIR" INDICATES FEW OR NO CLOUDS BELOW 12,000 FEET WITH NO
SIGNIFICANT WEATHER AND/OR OBSTRUCTION TO VISIBILITY.

MIZ047>049-052>055-059>063-066>070-074>076-081>083-171200-
SOUTHEAST LOWER MICHIGAN

CITY           SKY/WX    TMP DP  RH WIND       PRES   REMARKS
ADRIAN         CLEAR     40  36  86 SW6       30.26F
ALMA           PTCLDY    44  38  82 S8        30.15S
ANN ARBOR      CLEAR     36  36 100 S3        30.23F
BAD AXE        CLOUDY    43  38  81 S8        30.15S
CARO           PTCLDY    42  37  82 S7        30.15S
DETROIT CITY   CLEAR     46  38  73 SW7       30.24S
DETROIT        PTCLDY    43  38  82 SW12      30.25F
FLINT          CLEAR     45  37  73 SW9       30.19S
GROSSE ILE     CLEAR     47  38  71 SW9G17    30.24F
HILLSDALE      CLEAR     43  36  75 S6        30.23S
HOWELL         CLEAR     45  38  78 SW8       30.20F

CITY           SKY/WX    TMP DP  RH WIND       PRES   REMARKS
JACKSON        CLEAR     45  37  73 S12       30.22S
LAMBERTVILLE   CLEAR     45  38  77 SW6       30.26F
LANSING        CLEAR     45  37  73 SW9       30.19F
LAPEER         FAIR      45  38  76 SW7       30.18F
MASON          CLEAR     46  38  74 CALM      30.21S
MONROE         CLEAR     44  37  76 SW6       30.25F
MT. CLEMENS    CLEAR     45  40  81 SW8       30.20F
PONTIAC        PTCLDY    44  39  82 SW6       30.20F
PORT HOPE        N/A     47  38  71 VRB7      30.11F
PORT HURON     CLEAR     45  39  81 SW3       30.21S
TRI CITIES     PTCLDY    45  40  82 SW9       30.15F
MIDLAND        FAIR      43  39  85 S3        30.12F
TROY           CLEAR     44  39  82 SW9       30.24S
SAGINAW HB     PTCLDY    45  37  76 S10       30.14S
$$
MIZ043>046-050>051-056>058-064>065-071>073-077>080-171200-
SOUTHWEST LOWER MICHIGAN

CITY           SKY/WX    TMP DP  RH WIND       PRES   REMARKS
BATTLE CREEK   CLEAR     44  39  82 SW9       30.22S
BENTON HARBOR  CLEAR     46  37  71 S8        30.21S
BIG RAPIDS     CLEAR     43  42  93 SW7       30.09F
COLDWATER      CLEAR     44  38  80 SW7       30.24S
FREMONT        FAIR      44  43  96 S3        30.11F
HOLLAND        CLEAR     51  46  83 SW13      30.17F
GRAND RAPIDS   CLOUDY    48  42  80 S13       30.16F
IONIA          FAIR      45  38  76 SW10      30.16S
LUDINGTON      CLEAR     57  46  64 SW16      30.05F
MARSHALL       CLEAR     44  38  78 SW6       30.22S
MOUNT PLEASANT PTCLDY    47  40  77 SW6       30.11F
MUSKEGON       CLEAR     59  46  62 SW17      30.13F
SOUTH HAVEN    CLEAR     49  40  70 S7        30.20S
$$
MIZ016>042-171200-
NORTHERN LOWER MICHIGAN

CITY           SKY/WX    TMP DP  RH WIND       PRES   REMARKS
ALPENA         CLOUDY    46  40  79 SW9       30.02F
BEAVER ISLAND  CLEAR     58  45  62 SW15G23   29.95R
BELLAIRE       CLEAR     48  42  79 CALM      30.01S
CADILLAC       CLEAR     47  41  79 S7        30.05F
CHARLEVOIX     CLEAR     53  45  74 S12       30.00S
FRANKFORT      CLEAR     58  49  72 S5        30.01S
GAYLORD        CLEAR     47  38  71 SW15      30.00F
GRAYLING       CLEAR     46  38  75 SW9       30.03F
HARBOR SPRINGS CLEAR     51  43  72 CALM      29.97F
HOUGHTON LAKE  CLEAR     46  40  79 VRB5      30.07F
MANISTEE       CLEAR     48  44  86 S3        30.04F
OSCODA         MOCLDY    44  38  79 SW13      30.07F
ROGERS CITY    MOCLDY    46  40  79 SW13G20   29.98F
TRAVERSE CITY  CLEAR     53  42  66 SW8       30.00F
$$
MIZ007>008-015-171200-
EASTERN UPPER MICHIGAN

CITY           SKY/WX    TMP DP  RH WIND       PRES   REMARKS
KINROSS        CLEAR     51  47  86 SW8       29.91F
MACKINAC ISLAN CLEAR     55  43  65 SW12G26   29.93S
NEWBERRY       CLEAR     50  43  77 SW10      29.90S
S. S. MARIE    CLEAR     51  47  86 SW9       29.89S
MUNISING         N/A     47  38  71 SW13      29.90R
$$
MIZ004>006-011>014-085-171200-
CENTRAL UPPER MICHIGAN

CITY           SKY/WX    TMP DP  RH WIND       PRES   REMARKS
MANISTIQUE     CLEAR     49  35  56 SW3       29.92S
ESCANABA       CLEAR     46  38  73 W10       29.93S
MENOMINEE      PTCLDY    48  38  68 W6        29.98R
SAWYER-GWINN   CLEAR     41  36  81 SW3       29.91S
$$
MIZ001>003-009>011-084-171200-
WESTERN UPPER MICHIGAN

CITY           SKY/WX    TMP DP  RH WIND       PRES   REMARKS
HOUGHTON       PTCLDY    51  39  63 W9        29.87R
COPPER HARBOR    N/A     54  42  64 VRB5      29.85R
IRONWOOD       CLOUDY    45  37  73 SW5       29.95R
$$

ABBREVIATIONS USED IN REMARKS
   TC - TEMPERATURE IN CELSIUS
  WCI - WIND CHILL INDEX
   HX - HEAT INDEX
  VSB - VISIBILITY





USA.gov is the U.S. government's official web portal to all federal, state and local government web resources and services.